GW1238 Weather Reports


time (UTC)temp
F
wind
direction
speed
knots
gust
knots
rain 1hr
in
rain 24hr
in
rain mn
in
humidity
%
barometer
mb
20260506051034 71 187 3.5 6.1 0.00 0.00 0.00 68 1015.0
20260506050532 71 192 4.3 5.2 0.00 0.00 0.00 68 1015.0
20260506045023 72 195 3.5 3.5 0.00 0.00 0.00 68 1015.1
20260506044521 71 199 2.6 5.2 0.00 0.00 0.00 66 1015.2
20260506044017 72 248 1.7 6.1 0.00 0.00 0.00 66 1015.2
20260506043514 72 196 3.5 5.2 0.00 0.00 0.00 67 1015.3
20260506043013 72 190 4.3 6.1 0.00 0.00 0.00 66 1015.1
20260506042512 72 181 3.5 6.1 0.00 0.00 0.00 67 1015.1
20260506042009 72 186 4.3 6.1 0.00 0.00 0.00 68 1015.2
20260506041508 72 184 4.3 5.2 0.00 0.00 0.00 66 1015.0
20260506041004 72 186 5.2 6.1 0.00 0.00 0.00 65 1015.2
20260506040502 72 181 5.2 6.1 0.00 0.00 0.00 66 1015.2
20260506035957 72 188 4.3 6.1 0.00 0.00 0.00 67 1015.1
20260506035455 72 184 5.2 6.1 0.00 0.00 0.00 66 1015.2
20260506034951 72 188 5.2 7.8 0.00 0.00 0.00 65 1015.1
20260506034449 72 201 4.3 6.1 0.00 0.00 0.00 67 1015.1
20260506033946 72 186 5.2 6.1 0.00 0.00 0.00 63 1015.3
20260506033443 72 188 3.5 5.2 0.00 0.00 0.00 62 1015.5
20260506032939 72 215 1.7 5.2 0.00 0.00 0.00 63 1015.8
20260506032437 72 189 2.6 5.2 0.00 0.00 0.00 65 1015.5
20260506031933 73 180 5.2 6.1 0.00 0.00 0.00 68 1015.6
20260506031431 73 217 4.3 6.1 0.00 0.00 0.00 66 1015.3
20260506030929 73 199 4.3 6.1 0.00 0.00 0.00 64 1015.5
20260506030426 73 175 5.2 6.1 0.00 0.00 0.00 64 1015.2
20260506025923 73 184 3.5 3.5 0.00 0.00 0.00 65 1015.3
20260506025420 73 191 4.3 5.2 0.00 0.00 0.00 66 1015.6
20260506024916 73 233 0.9 3.5 0.00 0.00 0.00 60 1015.9
20260506024414 73 199 3.5 5.2 0.00 0.00 0.00 60 1015.8
20260506023909 73 201 3.5 5.2 0.00 0.00 0.00 60 1015.8
20260506023407 73 194 4.3 6.1 0.00 0.00 0.00 60 1015.8
20260506022903 73 192 1.7 6.1 0.00 0.00 0.00 61 1015.6
20260506022401 73 189 5.2 6.1 0.00 0.00 0.00 61 1015.1
20260506021859 72 197 6.1 7.0 0.00 0.00 0.00 62 1015.1
20260506021355 73 199 4.3 6.1 0.00 0.00 0.00 64 1015.0
20260506020852 72 203 2.6 6.1 0.00 0.00 0.00 61 1015.0
20260506020350 72 203 3.5 3.5 0.00 0.00 0.00 62 1015.1
20260506015847 72 187 5.2 6.1 0.00 0.00 0.00 61 1014.8
20260506015345 72 215 3.5 6.1 0.00 0.00 0.00 62 1014.9
20260506014841 72 187 5.2 6.1 0.00 0.00 0.00 62 1015.0
20260506014338 72 214 1.7 5.2 0.00 0.00 0.00 63 1014.8
20260506013835 72 201 2.6 5.2 0.00 0.00 0.00 63 1014.8
20260506013332 73 192 3.5 6.1 0.00 0.00 0.00 66 1014.7
20260506012829 73 184 4.3 5.2 0.00 0.00 0.00 66 1014.9
20260506012326 73 186 4.3 6.1 0.00 0.00 0.00 62 1014.8
20260506011823 73 186 4.3 6.1 0.00 0.00 0.00 62 1014.7
20260506011319 73 193 3.5 6.1 0.00 0.00 0.00 61 1014.6
20260506010817 73 197 3.5 7.0 0.00 0.00 0.00 64 1014.6
20260506010315 73 187 5.2 6.1 0.00 0.00 0.00 64 1014.7
20260506005811 73 188 5.2 7.0 0.00 0.00 0.00 65 1014.4
20260506005308 73 179 6.1 7.0 0.00 0.00 0.00 61 1014.5
20260506004805 73 182 5.2 7.8 0.00 0.00 0.00 62 1014.4
20260506004302 73 177 6.1 6.1 0.00 0.00 0.00 63 1014.4
20260506003758 73 176 5.2 6.1 0.00 0.00 0.00 62 1014.5
20260506003254 73 182 4.3 5.2 0.00 0.00 0.00 61 1014.5
20260506002751 73 182 3.5 3.5 0.00 0.00 0.00 66 1014.4
20260506002247 73 188 3.5 5.2 0.00 0.00 0.00 64 1014.6
20260506001743 73 193 1.7 5.2 0.00 0.00 0.00 60 1014.9
20260506001241 73 198 3.5 3.5 0.00 0.00 0.00 60 1014.7
20260506000737 72 206 0.9 3.5 0.00 0.00 0.00 57 1015.1
20260506000235 71 198 0.0 1.7 0.00 0.00 0.00 60 1014.9
20260505235732 71 180 0.9 1.7 0.00 0.00 0.00 62 1014.9
20260505235230 71 301 0.0 0.9 0.00 0.00 0.00 62 1014.9
20260505234726 71 338 0.0 2.6 0.00 0.00 0.00 62 1014.8
20260505234224 71 219 0.0 0.9 0.00 0.00 0.00 64 1014.8
20260505233720 72 16 0.0 0.9 0.00 0.00 0.00 60 1014.7
20260505233218 72 162 0.0 2.6 0.00 0.00 0.00 61 1015.0
20260505232715 73 267 0.9 1.7 0.00 0.00 0.00 60 1014.8
20260505232212 72 171 0.0 0.9 0.00 0.00 0.00 58 1014.9
20260505231709 73 324 0.0 0.9 0.00 0.00 0.00 59 1014.8
20260505231208 73 194 0.0 3.5 0.00 0.00 0.00 57 1014.8
20260505230706 73 195 3.5 5.2 0.00 0.00 0.00 56 1015.0
20260505230202 73 203 2.6 5.2 0.00 0.00 0.00 56 1014.8
20260505225658 73 187 0.9 2.6 0.00 0.00 0.00 60 1014.8
20260505225155 73 193 2.6 3.5 0.00 0.00 0.00 60 1014.6
20260505224651 73 187 4.3 5.2 0.00 0.00 0.00 63 1014.4
20260505224149 73 194 2.6 3.5 0.00 0.00 0.00 56 1014.6
20260505223646 72 195 0.0 3.5 0.00 0.00 0.00 57 1015.0
20260505223142 73 100 0.0 1.7 0.00 0.00 0.00 59 1014.9
20260505222638 73 221 0.9 2.6 0.00 0.00 0.00 58 1015.0
20260505222135 73 192 2.6 3.5 0.00 0.00 0.00 56 1014.8
20260505221632 73 208 2.6 3.5 0.00 0.00 0.00 57 1014.8
20260505221128 73 200 3.5 3.5 0.00 0.00 0.00 52 1015.0
20260505220626 74 179 3.5 3.5 0.00 0.00 0.00 56 1015.2
20260505220123 74 189 4.3 6.1 0.00 0.00 0.00 57 1014.9
20260505215621 74 189 5.2 7.0 0.00 0.00 0.00 58 1014.8
20260505215119 74 172 4.3 7.8 0.00 0.00 0.00 47 1015.0
20260505214617 74 173 4.3 6.1 0.00 0.00 0.00 56 1014.8
20260505214113 74 179 4.3 7.0 0.00 0.00 0.00 60 1014.9
20260505213611 74 185 5.2 7.8 0.00 0.00 0.00 57 1014.8
20260505213107 74 178 5.2 7.0 0.00 0.00 0.00 60 1015.0
20260505212603 74 192 7.0 9.6 0.00 0.00 0.00 57 1015.2
20260505212102 74 180 7.8 9.6 0.00 0.00 0.00 56 1015.3
20260505211558 75 204 7.8 8.7 0.00 0.00 0.00 55 1015.0
20260505211055 75 175 7.8 9.6 0.00 0.00 0.00 54 1015.4
20260505210552 75 192 5.2 8.7 0.00 0.00 0.00 56 1015.6
20260505210049 76 191 8.7 8.7 0.00 0.00 0.00 58 1015.4
20260505205546 76 176 9.6 11.3 0.00 0.00 0.00 55 1015.5
20260505205044 76 177 7.0 9.6 0.00 0.00 0.00 52 1015.1
20260505204541 76 180 8.7 12.2 0.00 0.00 0.00 49 1015.2
20260505204038 76 174 8.7 12.2 0.00 0.00 0.00 49 1015.2
20260505203535 76 181 9.6 9.6 0.00 0.00 0.00 51 1015.4
20260505203032 76 179 7.8 7.8 0.00 0.00 0.00 55 1015.5
20260505202528 76 177 7.0 12.2 0.00 0.00 0.00 56 1015.6
20260505202024 76 243 4.3 7.0 0.00 0.00 0.00 53 1015.5
20260505201521 76 191 5.2 11.3 0.00 0.00 0.00 55 1015.6
20260505201018 76 187 8.7 11.3 0.00 0.00 0.00 57 1015.8
20260505200517 76 200 9.6 11.3 0.00 0.00 0.00 55 1016.0
20260505200013 76 190 4.3 7.8 0.00 0.00 0.00 51 1015.9
20260505195509 76 188 11.3 13.0 0.00 0.00 0.00 55 1015.9
20260505195007 77 169 7.8 12.2 0.00 0.00 0.00 52 1015.9
20260505194504 76 185 7.8 12.2 0.00 0.00 0.00 55 1015.8
20260505194004 76 185 9.6 12.2 0.00 0.00 0.00 53 1015.9
20260505193502 76 185 8.7 9.6 0.00 0.00 0.00 54 1016.3
20260505192959 76 188 11.3 13.0 0.00 0.00 0.00 52 1016.3
20260505192457 77 171 10.4 13.0 0.00 0.00 0.00 50 1016.3
20260505191954 76 232 3.5 7.8 0.00 0.00 0.00 50 1016.3
20260505191453 76 180 9.6 12.2 0.00 0.00 0.00 50 1016.4
20260505190950 76 194 7.0 11.3 0.00 0.00 0.00 52 1016.2
20260505190444 76 194 7.8 8.7 0.00 0.00 0.00 48 1016.3
20260505185940 76 187 7.8 9.6 0.00 0.00 0.00 48 1016.1
20260505185438 76 181 9.6 12.2 0.00 0.00 0.00 53 1016.3
20260505184934 76 161 8.7 9.6 0.00 0.00 0.00 46 1016.3
20260505184431 76 188 10.4 12.2 0.00 0.00 0.00 51 1016.5
20260505183927 75 184 7.8 9.6 0.00 0.00 0.00 53 1016.6
20260505183425 76 192 9.6 11.3 0.00 0.00 0.00 55 1016.6
20260505182921 76 175 8.7 12.2 0.00 0.00 0.00 53 1016.3
20260505182418 76 162 7.0 11.3 0.00 0.00 0.00 53 1016.7
20260505181914 75 168 9.6 9.6 0.00 0.00 0.00 49 1016.8
20260505181412 76 200 6.1 8.7 0.00 0.00 0.00 55 1017.1
20260505180908 76 173 8.7 9.6 0.00 0.00 0.00 54 1017.1
20260505180405 75 179 7.8 8.7 0.00 0.00 0.00 57 1017.1
20260505175902 76 179 7.8 13.0 0.00 0.00 0.00 60 1017.1
20260505175358 75 169 7.0 8.7 0.00 0.00 0.00 51 1017.1
20260505174854 75 160 7.8 9.6 0.00 0.00 0.00 51 1017.1
20260505174352 75 173 7.8 8.7 0.00 0.00 0.00 53 1017.2
20260505173848 75 163 4.3 7.8 0.00 0.00 0.00 51 1017.4
20260505173344 75 190 8.7 9.6 0.00 0.00 0.00 56 1017.1
20260505172842 75 191 6.1 7.8 0.00 0.00 0.00 57 1017.3
20260505172339 75 183 5.2 7.8 0.00 0.00 0.00 57 1017.4
20260505171839 75 174 4.3 7.0 0.00 0.00 0.00 55 1017.6
20260505171336 74 179 6.1 7.0 0.00 0.00 0.00 56 1017.8
20260505170832 74 188 7.8 8.7 0.00 0.00 0.00 60 1017.8
20260505170329 74 174 3.5 6.1 0.00 0.00 0.00 57 1018.0
20260505165825 74 195 5.2 7.8 0.00 0.00 0.00 56 1018.2
20260505165320 74 178 5.2 8.7 0.00 0.00 0.00 58 1018.1
20260505164816 74 182 4.3 6.1 0.00 0.00 0.00 57 1018.1
20260505164314 74 184 7.0 9.6 0.00 0.00 0.00 56 1018.0
20260505163812 74 189 8.7 9.6 0.00 0.00 0.00 58 1018.1
20260505163310 74 193 7.8 8.7 0.00 0.00 0.00 58 1018.3
20260505162808 74 193 7.0 7.8 0.00 0.00 0.00 61 1018.3
20260505162306 74 190 3.5 3.5 0.00 0.00 0.00 58 1018.1
20260505161801 74 171 3.5 3.5 0.00 0.00 0.00 61 1018.0
20260505161258 73 181 3.5 5.2 0.00 0.00 0.00 60 1018.2
20260505160755 73 196 1.7 3.5 0.00 0.00 0.00 61 1018.3
20260505160253 72 162 3.5 5.2 0.00 0.00 0.00 62 1018.3
20260505153232 71 185 3.5 3.5 0.00 0.00 0.00 64 1018.8
20260505152729 72 192 3.5 3.5 0.00 0.00 0.00 65 1018.7
20260505152226 70 179 3.5 3.5 0.00 0.00 0.00 64 1018.7
20260505151725 70 181 3.5 5.2 0.00 0.00 0.00 66 1018.5
20260505151223 70 190 3.5 6.1 0.00 0.00 0.00 65 1018.8
20260505150720 70 184 4.3 5.2 0.00 0.00 0.00 67 1018.5
20260505150218 70 187 2.6 5.2 0.00 0.00 0.00 66 1018.5
20260505140650 67 173 2.6 3.5 0.00 0.00 0.00 68 1018.7
20260505140148 67 185 2.6 5.2 0.00 0.00 0.00 67 1018.4
20260505130111 64 174 1.7 2.6 0.00 0.00 0.00 74 1018.9
20260505124601 61 168 0.9 0.9 0.00 0.00 0.00 86 1018.3
20260505124057 60 306 0.9 0.9 0.00 0.00 0.00 87 1018.3
20260505123553 59 294 0.9 1.7 0.00 0.00 0.00 85 1018.3
20260505123050 60 288 0.9 2.6 0.00 0.00 0.00 84 1018.1
20260505122547 60 317 0.9 1.7 0.00 0.00 0.00 83 1018.0
20260505122044 60 170 0.0 0.0 0.00 0.00 0.00 83 1017.8
20260505121540 61 295 0.9 1.7 0.00 0.00 0.00 83 1017.9
20260505121037 60 152 0.0 0.0 0.00 0.00 0.00 88 1017.8
20260505120534 58 290 0.9 0.9 0.00 0.00 0.00 88 1018.0
20260505120029 57 263 0.0 0.9 0.00 0.00 0.00 88 1017.9
20260505115524 56 296 1.7 1.7 0.00 0.00 0.00 89 1017.7
20260505115022 55 299 1.7 1.7 0.00 0.00 0.00 89 1018.0
20260505114519 55 312 0.9 1.7 0.00 0.00 0.00 90 1017.7
20260505114015 55 306 1.7 1.7 0.00 0.00 0.00 91 1017.7
20260505113512 54 289 1.7 2.6 0.00 0.00 0.00 91 1017.6
20260505113008 54 295 1.7 2.6 0.00 0.00 0.00 91 1017.4
20260505112504 53 304 1.7 2.6 0.00 0.00 0.00 91 1017.5
20260505112002 53 296 1.7 2.6 0.00 0.00 0.00 91 1017.4
20260505111456 53 298 2.6 2.6 0.00 0.00 0.00 91 1017.3
20260505110952 52 298 2.6 2.6 0.00 0.00 0.00 91 1017.4
20260505110449 52 293 1.7 2.6 0.00 0.00 0.00 91 1017.4
20260505101921 54 299 1.7 1.7 0.00 0.00 0.00 90 1016.7
20260505101421 53 296 1.7 2.6 0.00 0.00 0.00 90 1016.9
20260505100916 54 303 1.7 1.7 0.00 0.00 0.00 90 1016.7
20260505100413 54 293 1.7 1.7 0.00 0.00 0.00 89 1016.7
20260505095909 54 303 1.7 1.7 0.00 0.00 0.00 89 1016.4
20260505095406 54 292 1.7 1.7 0.00 0.00 0.00 89 1016.4
20260505094902 55 297 1.7 1.7 0.00 0.00 0.00 90 1016.7
20260505094400 54 303 0.9 1.7 0.00 0.00 0.00 89 1016.3
20260505093855 55 292 0.9 1.7 0.00 0.00 0.00 89 1016.6
20260505093353 54 304 0.9 1.7 0.00 0.00 0.00 90 1016.6
20260505092850 54 292 1.7 1.7 0.00 0.00 0.00 90 1016.7
20260505092348 54 293 0.9 1.7 0.00 0.00 0.00 90 1016.8
20260505091845 54 235 0.0 1.7 0.00 0.00 0.00 90 1016.7
20260505091343 54 277 0.9 1.7 0.00 0.00 0.00 90 1017.0
20260505090841 53 289 1.7 1.7 0.00 0.00 0.00 90 1016.7
20260505090339 53 294 1.7 1.7 0.00 0.00 0.00 89 1016.7
20260505085835 53 294 1.7 1.7 0.00 0.00 0.00 89 1016.8
20260505085333 53 301 1.7 1.7 0.00 0.00 0.00 88 1016.8
20260505084831 53 296 1.7 2.6 0.00 0.00 0.00 88 1016.5
20260505084329 53 308 1.7 2.6 0.00 0.00 0.00 88 1016.6
20260505083826 53 302 1.7 2.6 0.00 0.00 0.00 88 1016.9
20260505083324 54 287 1.7 2.6 0.00 0.00 0.00 88 1016.8
20260505082820 53 289 1.7 2.6 0.00 0.00 0.00 88 1016.7
20260505082316 53 307 1.7 2.6 0.00 0.00 0.00 87 1016.9
20260505081813 54 284 1.7 2.6 0.00 0.00 0.00 87 1016.7
20260505081310 54 289 1.7 2.6 0.00 0.00 0.00 87 1016.9
20260505080806 54 283 1.7 2.6 0.00 0.00 0.00 86 1017.0
20260505080302 54 295 2.6 2.6 0.00 0.00 0.00 86 1016.8
20260505075758 54 296 1.7 2.6 0.00 0.00 0.00 85 1016.9
20260505075255 55 286 1.7 1.7 0.00 0.00 0.00 86 1016.6
20260505074752 55 290 1.7 2.6 0.00 0.00 0.00 85 1016.9
20260505074249 55 301 1.7 2.6 0.00 0.00 0.00 86 1016.8
20260505073747 55 304 1.7 2.6 0.00 0.00 0.00 84 1016.8
20260505073245 55 303 1.7 1.7 0.00 0.00 0.00 83 1016.8
20260505072741 55 303 1.7 2.6 0.00 0.00 0.00 83 1016.6
20260505072237 56 315 1.7 1.7 0.00 0.00 0.00 83 1016.9
20260505071733 56 295 1.7 1.7 0.00 0.00 0.00 84 1017.0
20260505071230 56 303 2.6 3.5 0.00 0.00 0.00 83 1016.9
20260505070728 56 293 1.7 2.6 0.00 0.00 0.00 83 1016.9
20260505070224 56 292 1.7 1.7 0.00 0.00 0.00 83 1016.9
20260505065720 56 303 1.7 1.7 0.00 0.00 0.00 82 1016.9
20260505065217 56 295 1.7 1.7 0.00 0.00 0.00 81 1016.9
20260505064714 57 293 0.9 2.6 0.00 0.00 0.00 81 1017.1
20260505064212 57 280 0.9 1.7 0.00 0.00 0.00 82 1017.1
20260505063709 58 26 0.0 0.9 0.00 0.00 0.00 80 1017.1
20260505063205 58 278 0.9 1.7 0.00 0.00 0.00 80 1017.2
20260505062701 58 303 0.9 1.7 0.00 0.00 0.00 80 1017.2
20260505062159 58 275 1.7 1.7 0.00 0.00 0.00 80 1016.9
20260505061656 58 295 1.7 1.7 0.00 0.00 0.00 79 1017.2
20260505061154 58 292 1.7 1.7 0.00 0.00 0.00 77 1017.0
20260505060651 58 253 0.0 1.7 0.00 0.00 0.00 79 1017.1
20260505060147 59 294 0.9 2.6 0.00 0.00 0.00 76 1017.2
20260505055643 61 279 0.9 1.7 0.00 0.00 0.00 72 1017.3
20260505055140 61 221 0.9 1.7 0.00 0.00 0.00 74 1017.2